#timestamp,LO_Frequency,Hit,StdDev 
1621908015.3,286046998.9,N
1621908035.1,286046998.8,N
1621908055.9,286046997.1,N
1621908075.7,286046997.6,N
1621908095.6,286046999.4,N
1621908115.4,286046998.6,N
1621908135.2,286047000.6,N
1621908155.1,286046997.7,N
1621908156.0,286046997.7,N
1621908175.8,286047001.2,N
1621908195.7,286046997.0,N
1621908215.5,286046996.8,N
1621908235.3,286046998.5,N
1621908255.2,286046998.7,N
1621908275.0,286046999.6,N
1621908275.9,286046999.6,N
1621908295.8,286046998.2,N
1621908315.6,286046999.1,N
1621908335.4,286047002.8,N
1621908355.3,286047000.9,N
1621908375.1,286047000.5,N
1621908395.8,286046999.0,N
1621908415.7,286046998.3,N
1621908435.5,286046998.5,N
1621908455.4,286047000.9,N
1621908475.2,286047001.5,N
1621908495.0,286047000.2,N
1621908495.9,286047000.2,N
1621908515.8,286047002.7,N
1621908535.6,286046999.7,N
1621908555.4,286047000.8,N
1621908575.3,286047002.4,N
1621908595.1,286047001.0,N
1621908615.9,286046999.8,N
1621908635.7,286046999.9,N
1621908655.5,286046997.3,N
1621908675.4,286046997.3,N
1621908695.2,286046999.4,N
1621908715.1,286047002.7,N
1621908716.0,286047002.7,N
1621908735.8,286047000.9,N
1621908755.6,286047001.2,N
1621908775.5,286047000.6,N
1621908795.3,286047002.7,N
1621908815.1,286047000.8,N
1621908835.9,286046998.9,N
1621908855.7,286046999.3,N
1621908875.6,286046998.2,N
1621908895.4,286046995.2,Y
1621908915.3,286046996.5,P
1621908935.1,286047000.0,N
1621908936.0,286047000.0,N
1621908955.8,286046999.5,N
1621908975.7,286046997.3,N
1621908995.5,286046998.8,N
1621909015.3,286046999.9,N
1621909035.2,286047000.5,N
1621909055.0,286046998.7,N
1621909055.9,286046998.7,N
1621909075.8,286046995.0,Y
1621909095.6,286046996.7,P
1621909115.4,286046999.3,N
1621909135.3,286046998.3,N
1621909155.1,286047000.6,N
1621909175.9,286046999.9,N
1621909195.7,286046999.8,N
1621909215.5,286047001.2,N
1621909235.4,286047000.0,N
1621909255.2,286046999.7,N
1621909275.0,286047002.1,N
1621909276.0,286047002.1,N
1621909295.8,286047003.9,N
1621909315.6,286047001.6,N
1621909335.5,286047003.6,N
1621909355.3,286047001.3,N
1621909375.1,286047001.3,N
1621909395.9,286047003.8,N
1621909415.7,286047002.8,N
1621909435.5,286047000.2,N
1621909455.4,286047000.4,N
1621909475.2,286047004.4,N
1621909495.1,286047000.6,N
1621909496.0,286047000.6,N
1621909515.8,286047001.9,N
1621909535.6,286047002.3,N
1621909555.5,286047000.0,N
1621909575.3,286046998.6,N
1621909595.1,286046999.5,N
1621909615.9,286046997.0,N
1621909635.7,286046994.9,N
1621909655.6,286046999.6,N
1621909675.4,286046996.9,N
1621909695.2,286046998.8,N
1621909715.1,286046996.9,N
1621909716.0,286046996.9,N
1621909735.8,286046997.2,N
1621909755.6,286046998.7,N
1621909775.5,286047000.5,N
1621909795.3,286046996.5,N
1621909815.2,286046996.1,N
1621909835.9,286046995.9,N
1621909855.7,286046993.3,N
1621909875.6,286046993.9,N
1621909895.4,286046994.3,N
1621909915.3,286046994.6,N
1621909935.1,286046993.9,N
1621909936.0,286046993.9,N
1621909955.8,286046992.0,N
1621909975.7,286046993.1,N
1621909995.5,286046994.2,N
1621910015.4,286046994.5,N
1621910035.2,286046991.7,N
1621910055.0,286046994.3,N
1621910055.9,286046994.3,N
1621910075.8,286046991.8,Y
1621910095.6,286046994.9,P
1621910115.5,286046993.3,P
1621910135.3,286046994.1,P
1621910155.2,286046994.2,Y
1621910175.9,286046998.2,P
1621910195.7,286047001.2,N
1621910215.6,286046998.1,N
1621910235.4,286046998.4,N
1621910255.2,286047000.6,N
1621910275.1,286046999.7,N
1621910276.0,286046999.7,N
1621910295.8,286047001.3,N
1621910315.7,286047001.7,N
1621910335.5,286047004.0,N
1621910355.3,286047004.2,N
1621910375.2,286047002.5,N
1621910395.0,286047000.6,N
1621910395.9,286047000.6,N
1621910415.8,286047001.8,N
1621910435.6,286047001.9,N
1621910455.4,286046999.8,N
1621910475.3,286047001.1,N
1621910495.1,286047000.0,N
1621910515.9,286047000.9,N
1621910535.7,286047000.5,N
1621910555.5,286047001.0,N
1621910575.4,286047001.2,N
1621910595.2,286047000.0,N
1621910615.0,286046998.7,N
1621910615.9,286046998.7,N
1621910635.8,286046997.3,N
1621910655.6,286046999.3,N
1621910675.5,286047000.4,N
1621910695.3,286047002.7,N
1621910715.1,286047001.4,N
1621910735.9,286047002.2,N
1621910755.7,286047000.3,N
1621910775.5,286047001.7,N
1621910795.4,286047002.9,N
1621910815.2,286047003.0,N
1621910835.1,286047005.2,Y
1621910836.0,286047005.2,P
1621910855.8,286047004.9,N
1621910875.6,286047004.8,N
1621910895.5,286047003.7,N
1621910915.3,286047005.1,Y
1621910935.2,286047003.6,P
1621910955.9,286047003.2,P
1621910975.7,286047001.8,P
1621910995.6,286047002.6,Y
1621911015.4,286046996.8,P
1621911035.2,286046997.0,N
1621911055.1,286046997.9,N
1621911056.0,286046997.9,N
1621911075.8,286046999.1,N
1621911095.7,286046997.2,N
1621911115.5,286046997.6,N
1621911135.3,286046999.5,N
1621911155.2,286046998.4,N
1621911175.0,286046997.1,N
1621911175.9,286046997.1,N
1621911195.7,286046995.1,N
1621911215.6,286046997.8,N
1621911235.4,286046999.6,N
1621911255.3,286046997.3,N
1621911275.1,286046999.6,N
1621911276.0,286046999.6,N
1621911295.8,286046996.8,N
1621911315.7,286046999.2,N
1621911335.5,286046999.1,N
1621911355.3,286047000.8,N
1621911375.2,286046999.6,N
1621911395.0,286046998.4,N
1621911395.9,286046998.4,N
1621911415.8,286047001.0,N
1621911435.6,286047000.6,N
1621911455.4,286046996.9,N
1621911475.3,286046997.4,N
1621911495.1,286046997.5,N
1621911515.8,286046997.3,N
1621911535.7,286046997.9,N
1621911555.5,286046998.3,N
1621911575.4,286046999.2,N
1621911595.2,286046998.4,N
